User: anonymous   Login
Location: Camp Creek
(33.9000°N, 111.8167°W)
Time: 23:50:03
(UTC-07:00)
Language:

Cosmos 1656 - Orbit

View from above orbital plane
View from above orbital plane
View from above satellite
View from above satellite

Ground track
Ground track

The orbit data is extracted from the following two-line orbital elements,

1 15755U 85042A   16149.89027758 -.00000070  00000-0 -10274-4 0  9996
2 15755  71.1103  92.8910 0037477 287.0830  72.6193 14.20391675606124
Epoch (UTC): 28 May 2016 21:21:59
Eccentricity: 0.0037477
inclination: 71.1103°
perigee height: 797 km
apogee height: 851 km
right ascension of ascending node: 92.8910°
argument of perigee: 287.0830°
revolutions per day: 14.20391675
mean anomaly at epoch: 72.6193°
orbit number at epoch: 60612

The dashed part of the orbit path shows where the satellite is in the earth's shadow,  

DLR